Gainesville, TX

4:47 PM CDT on June 22, 2017 (GMT -0500)
Gainesville Municipal

Weather History for KGLE - February, 2013

Change the Weather History Date:

Wednesday, February 27, 2013

  Actual Average (KDTO) Record (KDTO)
Temperature  
Mean Temperature 42 °F -  
Max Temperature 51 °F 57 °F 81 °F (2007)
Min Temperature 32 °F 36 °F 12 °F (2002)
Degree Days  
Heating Degree Days 24    
Moisture  
Dew Point 26 °F    
Average Humidity 64    
Maximum Humidity 93    
Minimum Humidity 26    
Precipitation  
Precipitation 0.00 in - - ()
Sea Level Pressure  
Sea Level Pressure 30.11 in    
Wind  
Wind Speed 10 mph (NW)    
Max Wind Speed 22 mph    
Max Gust Speed 30 mph    
Visibility 10 miles    
Events      
Averages and records for this station are not official NWS values.
T = Trace of Precipitation, MM = Missing Value Source: NWS Daily Summary

Daily Weather History Graph

Daily Weather History Graph

Search for Another Location

Airport or City:

Trip Planner

Search our weather history database for the weather conditions in past years. The results will help you decide how hot, cold, wet, or windy it might be!

Date:

Astronomy

Feb. 27, 2013 Rise Set
Actual Time 6:59 AM CST 6:24 PM CST
Civil Twilight 6:34 AM CST 6:49 PM CST
Nautical Twilight 6:05 AM CST 7:17 PM CST
Astronomical Twilight 5:36 AM CST 7:46 PM CST
Moon 8:36 PM CST (2/27) 7:43 AM CST (2/27)
Length of Visible Light 12h 14m
Length of Day
11h 24m
Waning Gibbous, 96% of the Moon is Illuminated
Feb 27
Waning Gibbous
Mar 4
Last Quarter
Mar 11
New
Mar 19
First Quarter
Mar 27
Full

Hourly Weather History & Observations

Time (CST) Temp. Windchill Dew Point Humidity Pressure Visibility Wind Dir Wind Speed Gust Speed Precip Events Conditions
12:15 AM 35.6 °F 31.7 °F 30.2 °F 81% 29.93 in 10.0 mi NNE 4.6 mph - N/A   Clear
12:35 AM 35.6 °F 30.7 °F 30.2 °F 81% 29.92 in 10.0 mi North 5.8 mph - N/A   Clear
12:55 AM 35.6 °F 30.7 °F 30.2 °F 81% 29.93 in 10.0 mi North 5.8 mph - N/A   Clear
1:15 AM 35.6 °F 29.9 °F 30.2 °F 81% 29.94 in 10.0 mi North 6.9 mph - N/A   Clear
1:35 AM 32.0 °F 27.5 °F 28.4 °F 87% 29.95 in 10.0 mi North 4.6 mph - N/A   Clear
1:55 AM 32.0 °F 27.5 °F 28.4 °F 87% 29.97 in 10.0 mi NW 4.6 mph - N/A   Clear
2:15 AM 32.0 °F 26.4 °F 30.2 °F 93% 29.95 in 10.0 mi NNW 5.8 mph - N/A   Clear
2:35 AM 32.0 °F 25.6 °F 30.2 °F 93% 29.96 in 10.0 mi NNW 6.9 mph - N/A   Clear
2:55 AM 32.0 °F 24.8 °F 30.2 °F 93% 29.96 in 10.0 mi NNW 8.1 mph - N/A   Clear
3:15 AM 32.0 °F 24.2 °F 30.2 °F 93% 29.96 in 10.0 mi North 9.2 mph - N/A   Clear
3:35 AM 32.0 °F 24.2 °F 30.2 °F 93% 29.96 in 10.0 mi North 9.2 mph - N/A   Clear
3:55 AM 32.0 °F - 28.4 °F 87% 29.96 in 10.0 mi Calm Calm - N/A   Clear
4:15 AM 32.0 °F 27.5 °F 28.4 °F 87% 29.99 in 10.0 mi NW 4.6 mph - N/A   Clear
4:35 AM 32.0 °F 25.6 °F 30.2 °F 93% 30.00 in 10.0 mi NNW 6.9 mph - N/A   Clear
4:55 AM 32.0 °F 24.8 °F 28.4 °F 87% 30.00 in 10.0 mi NW 8.1 mph - N/A   Clear
5:15 AM 32.0 °F 24.8 °F 28.4 °F 87% 30.02 in 10.0 mi NW 8.1 mph - N/A   Clear
5:35 AM 32.0 °F 24.2 °F 28.4 °F 87% 30.04 in 10.0 mi NW 9.2 mph - N/A   Mostly Cloudy
5:55 AM 32.0 °F 23.0 °F 30.2 °F 93% 30.05 in 10.0 mi NW 11.5 mph - N/A   Overcast
6:15 AM 32.0 °F 26.4 °F 30.2 °F 93% 30.05 in 10.0 mi NW 5.8 mph - N/A   Overcast
6:35 AM 32.0 °F 24.8 °F 30.2 °F 93% 30.06 in 10.0 mi NW 8.1 mph - N/A   Overcast
6:55 AM 32.0 °F 27.5 °F 30.2 °F 93% 30.06 in 10.0 mi NW 4.6 mph - N/A   Overcast
7:15 AM 32.0 °F 27.5 °F 30.2 °F 93% 30.06 in 10.0 mi NW 4.6 mph - N/A   Overcast
7:35 AM 32.0 °F 25.6 °F 30.2 °F 93% 30.08 in 7.0 mi WNW 6.9 mph - N/A   Overcast
7:55 AM 32.0 °F 24.8 °F 30.2 °F 93% 30.09 in 10.0 mi WNW 8.1 mph - N/A   Mostly Cloudy
8:15 AM 32.0 °F 24.2 °F 30.2 °F 93% 30.10 in 10.0 mi WNW 9.2 mph - N/A   Scattered Clouds
8:35 AM 35.6 °F 28.6 °F 32.0 °F 87% 30.10 in 10.0 mi NW 9.2 mph - N/A   Clear
8:55 AM 35.6 °F 27.1 °F 30.2 °F 81% 30.11 in 10.0 mi NW 12.7 mph - N/A   Clear
9:15 AM 37.4 °F 28.5 °F 28.4 °F 70% 30.11 in 10.0 mi NNW 15.0 mph - N/A   Clear
9:35 AM 41.0 °F 34.7 °F 28.4 °F 61% - 10.0 mi NW 10.4 mph - N/A   Clear
9:55 AM 42.8 °F 35.8 °F 30.2 °F 61% 30.13 in 10.0 mi NW 13.8 mph 17.3 mph N/A   Clear
10:15 AM 42.8 °F 35.8 °F 30.2 °F 61% 30.13 in 10.0 mi WNW 13.8 mph 18.4 mph N/A   Clear
10:35 AM 42.8 °F 36.2 °F 30.2 °F 61% 30.14 in 10.0 mi WNW 12.7 mph - N/A   Clear
10:55 AM 44.6 °F 38.1 °F 28.4 °F 53% 30.14 in 10.0 mi WNW 13.8 mph 18.4 mph N/A   Clear
11:15 AM 44.6 °F 37.8 °F 28.4 °F 53% 30.15 in 10.0 mi NW 15.0 mph 19.6 mph N/A   Clear
11:35 AM 44.6 °F 37.8 °F 28.4 °F 53% 30.16 in 10.0 mi NW 15.0 mph 21.9 mph N/A   Clear
11:55 AM 44.6 °F 37.2 °F 28.4 °F 53% 30.16 in 10.0 mi NW 17.3 mph 24.2 mph N/A   Clear
12:15 PM 46.4 °F 40.7 °F 28.4 °F 50% 30.16 in 10.0 mi NW 12.7 mph 23.0 mph N/A   Clear
12:35 PM 46.4 °F 39.5 °F 28.4 °F 50% 30.16 in 10.0 mi WNW 17.3 mph 21.9 mph N/A   Clear
12:55 PM 46.4 °F 39.5 °F 26.6 °F 46% 30.16 in 10.0 mi WNW 17.3 mph 25.3 mph N/A   Clear
1:15 PM 50.0 °F - 26.6 °F 40% 30.15 in 10.0 mi WNW 18.4 mph 24.2 mph N/A   Clear
1:35 PM 50.0 °F - 26.6 °F 40% 30.15 in 10.0 mi WNW 18.4 mph 25.3 mph N/A   Clear
1:55 PM 50.0 °F - 26.6 °F 40% 30.14 in 10.0 mi WNW 18.4 mph 27.6 mph N/A   Clear
2:15 PM 50.0 °F - 23.0 °F 35% 30.13 in 10.0 mi WNW 21.9 mph 27.6 mph N/A   Clear
2:35 PM 50.0 °F - 21.2 °F 32% 30.13 in 10.0 mi WNW 19.6 mph 26.5 mph N/A   Clear
2:55 PM 51.8 °F - 19.4 °F 28% 30.13 in 10.0 mi West 15.0 mph 24.2 mph N/A   Clear
3:15 PM 50.0 °F - 17.6 °F 28% 30.13 in 10.0 mi WNW 18.4 mph 27.6 mph N/A   Clear
3:35 PM 51.8 °F - 17.6 °F 26% 30.14 in 10.0 mi WNW 20.7 mph 27.6 mph N/A   Clear
3:55 PM 50.0 °F - 17.6 °F 28% 30.14 in 10.0 mi WNW 20.7 mph 29.9 mph N/A   Clear
4:15 PM 50.0 °F - 17.6 °F 28% 30.13 in 10.0 mi WNW 19.6 mph 29.9 mph N/A   Clear
4:35 PM 50.0 °F - 17.6 °F 28% 30.14 in 10.0 mi WNW 17.3 mph 26.5 mph N/A   Clear
4:55 PM 50.0 °F - 17.6 °F 28% 30.14 in 10.0 mi NW 16.1 mph 26.5 mph N/A   Clear
5:15 PM 50.0 °F - 17.6 °F 28% 30.14 in 10.0 mi NW 18.4 mph 25.3 mph N/A   Clear
5:35 PM 50.0 °F - 21.2 °F 32% 30.15 in 10.0 mi NW 15.0 mph - N/A   Clear
5:55 PM 46.4 °F 40.4 °F 21.2 °F 37% 30.16 in 10.0 mi NW 13.8 mph - N/A   Clear
6:15 PM 44.6 °F 37.4 °F 21.2 °F 39% 30.17 in 10.0 mi NNW 16.1 mph - N/A   Clear
6:35 PM 44.6 °F 38.1 °F 19.4 °F 37% 30.18 in 10.0 mi NW 13.8 mph 18.4 mph N/A   Clear
6:55 PM 42.8 °F 36.6 °F 21.2 °F 42% 30.19 in 10.0 mi NW 11.5 mph 17.3 mph N/A   Clear
7:15 PM 42.8 °F 37.0 °F 21.2 °F 42% 30.20 in 10.0 mi NW 10.4 mph - N/A   Clear
7:35 PM 39.2 °F 32.5 °F 21.2 °F 49% 30.21 in 10.0 mi NW 10.4 mph - N/A   Clear
7:55 PM 39.2 °F 32.0 °F 21.2 °F 49% 30.22 in 10.0 mi NW 11.5 mph - N/A   Clear
8:15 PM 37.4 °F 28.9 °F 23.0 °F 56% 30.22 in 10.0 mi NW 13.8 mph - N/A   Clear
8:35 PM 37.4 °F 29.8 °F 23.0 °F 56% 30.22 in 10.0 mi NW 11.5 mph - N/A   Clear
8:55 PM 37.4 °F 28.9 °F 26.6 °F 65% 30.23 in 10.0 mi NW 13.8 mph - N/A   Clear
9:15 PM 37.4 °F 29.3 °F 24.8 °F 60% 30.23 in 10.0 mi NW 12.7 mph - N/A   Clear
9:35 PM 35.6 °F 26.6 °F 26.6 °F 70% 30.23 in 10.0 mi NW 13.8 mph - N/A   Clear
9:55 PM 35.6 °F 27.5 °F 24.8 °F 65% 30.24 in 10.0 mi NW 11.5 mph - N/A   Clear
10:15 PM 35.6 °F 28.0 °F 24.8 °F 65% 30.25 in 10.0 mi NW 10.4 mph - N/A   Clear
10:35 PM 35.6 °F 28.0 °F 26.6 °F 70% 30.25 in 10.0 mi NW 10.4 mph - N/A   Clear
10:55 PM 35.6 °F 28.6 °F 26.6 °F 70% 30.26 in 10.0 mi NW 9.2 mph - N/A   Clear
11:15 PM 33.8 °F 26.4 °F 24.8 °F 70% 30.26 in 10.0 mi NW 9.2 mph - N/A   Clear
11:35 PM 32.0 °F 24.2 °F 24.8 °F 75% 30.25 in 10.0 mi NW 9.2 mph - N/A   Clear
11:55 PM 32.0 °F 25.6 °F 26.6 °F 80% 30.25 in 10.0 mi NW 6.9 mph - N/A   Clear